Location: Cudham
(51.3000°N, 0.0667°E)
Time: 00:08:08
(UTC+00:00)

Cosmos 1934 Rocket - Pass Details

Date: 19 May 2025
Orbit: 938 x 997 km, 83.0° (Epoch: 18 June)

Event Time Altitude Azimuth Distance (km) Brightness Sun altitude
Rises 23:07:53 0° 348° (NNW) 3,668 8.8 -17.9°
Reaches altitude 10° 23:10:24 10° 345° (NNW) 2,725 7.6 -18.0°
Maximum altitude 23:16:34 65° 266° (W) 1,073 4.2 -18.2°
Enters shadow 23:20:04 27° 192° (SSW) 1,784 4.8 -18.3°
